Regional Weather Roundup
Issued by NWS

Home | Current Version | Previous Version | Text Only | Print | Product List | Glossary On
Versions: 1 2 3 4 5 6 7 8 9 10 11 12 13 14 15 16 17 18 19 20 21 22 23 24 25 26 27 28 29 30 31 32 33 34 35 36 37 38 39 40 41 42 43 44 45 46 47 48 49 50
000
ASUS44 KLUB 312010
RWRTX
WEST TEXAS WEATHER ROUNDUP
NATIONAL WEATHER SERVICE LUBBOCK TX
200 PM CST SAT JAN 31 2015

NOTE: "FAIR" INDICATES FEW OR NO CLOUDS BELOW 12,000 FEET WITH NO
SIGNIFICANT WEATHER AND/OR OBSTRUCTIONS TO VISIBILITY.

TXZ004-006>008-010-012-014-016-OKZ002-312100-
TEXAS PANHANDLE/OKLAHOMA PANHANDLE

CITY           SKY/WX    TMP DP  RH WIND       PRES   REMARKS
AMARILLO       CLOUDY    37  36  96 S10       29.90F WCI  30
BORGER         CLOUDY    40  36  86 S12       29.90F WCI  33
CANADIAN       DRIZZLE   42  40  94 S13       29.91F
DALHART        CLOUDY    40  36  86 SW16      29.86F WCI  31
DUMAS          CLOUDY    37  36  93 S15       29.87F WCI  28
GUYMON         CLOUDY    41  37  86 S16       29.83F
HEREFORD       CLOUDY    40  39  98 S9        29.89F WCI  34
PAMPA          CLOUDY    38  37  94 S18       29.89F WCI  29
PERRYTON       CLOUDY    40  38  91 S17       29.88F WCI  31
$$

TXZ026-029-035-045-048-312100-
SOUTHERN PANHANDLE/SOUTH PLAINS/ROLLING PLAINS

CITY           SKY/WX    TMP DP  RH WIND       PRES   REMARKS
CHILDRESS      LGT RAIN  42  41  96 SE7       29.96F FOG
SEMINOLE       FOG       44  44 100 S3        29.91F VSB 1/2
LUBBOCK        DRIZZLE   42  41  96 S10       29.90F FOG
PLAINVIEW      CLOUDY    40  39  96 S6        29.90F FOG
SNYDER         HVY RAIN N/A N/A N/A S9        29.93F
$$

TXZ052-054-060>062-072-078-127-140-154-169-312100-
PERMIAN BASIN/CONCHO VALLEY/BIG COUNTRY/EDWARDS PLATEAU

CITY           SKY/WX    TMP DP  RH WIND       PRES   REMARKS
ABILENE        LGT RAIN  49  46  90 SE16      29.95F
BIG SPRING     CLOUDY    51  49  93 S10       29.93F
BRADY          LGT RAIN  50  50 100 SE13      29.96F
BROWNWOOD      LGT RAIN  48  48 100 SE12      29.99F
JUNCTION       CLOUDY    57  52  83 S13G20    29.95F
MIDLAND        CLOUDY    50  48  93 S13       29.89F FOG
ODESSA         CLOUDY    49  47  93 S16       29.90F FOG
SAN ANGELO     CLOUDY    55  52  89 CALM      29.93F
SONORA         CLOUDY    57  54  88 S18       29.97F
SWEETWATER     CLOUDY    49  49 100 SE14      29.94F
WINK           CLOUDY    51  45  79 S7        29.88F
$$

TXZ055-058-074-075-080-082-312100-
FAR WEST/SOUTHWEST MOUNTAINS/TRANS PECOS

CITY           SKY/WX    TMP DP  RH WIND       PRES   REMARKS
ALPINE         MOSUNNY   61  46  57 SW20G26   29.94F
DRYDEN           N/A     51  51 100 E6        29.91F
EL PASO        PTSUNNY   55  48  77 S7        29.87F
FORT STOCKTON  CLOUDY    62  51  67 S16       29.86F
GUADALUPE PASS CLOUDY    46  46 100 SW13      29.90F FOG
MARFA          PTSUNNY   61  46  59 S16G24    29.92F
PECOS          CLOUDY    50  46  85 NW5       29.89F
PRESIDIO       FAIR      64  53  68 CALM      29.86F
$$

TXZ014-016-019-021>030-083-312100
TEXAS TECH WEST TEXAS MESONET/TEXAS PANHANDLE/NORTHERN SOUTH PLAINS

CITY           SKY/WX    TMP DP  RH WIND       PRES   REMARKS
ABERNATHY 5ENE   N/A     41  40  98 S7        29.92F
AMARILLO 9NNE    N/A     38  37  94 S8        29.89F WCI  32
AMARILLO 7SSE    N/A     38  37  96 S12       29.90F WCI  31
AMHERST 1NE      N/A     39  39  99 S5        29.89F
BOOTLEG 11WNW    N/A     37  36  96 S12       29.89F WCI  29
CANADIAN 6E      N/A     40  39  96 S6        29.90F
CAPROCK CYN SP   N/A     39  39  98 CALM      29.93F
CLARENDON 2WSW   N/A     38  37  94 S6        29.92F WCI  34
CLAUDE 12SW      N/A     35  35  99 SE7       29.89F WCI  29
DIMMITT 2NE      N/A     37  36  97 S10       29.89F WCI  29
FLOYDADA 2NNE    N/A     40  40  99 S7        29.90F
FRIONA 2NE       N/A     38  37  96 S8        29.89F WCI  32
GOODLETT 3W      N/A     42  41  94 SE7       29.96F
HART 3N          N/A     37  37  99 S6        29.90F WCI  33
HEREFORD 2NW     N/A     38  36  92 S9        29.88F WCI  32
MCLEAN 1E        N/A     38  37  98 S9        29.90F WCI  31
MEMPHIS 1NE      N/A     41  40  97 SE7       29.94F
MULESHOE 2SSW    N/A     38  38  98 S6        29.90F WCI  34
OLTON 6S         N/A     39  38  94 S3        29.90F
PALO DURO SP     N/A     36  35  96 SE2       29.91F
PAMPA 2E       LGT RAIN  38  37  97 S12       29.89F WCI  30
PLAINVIEW 1S     N/A     40  40  99 S6        29.90F
SILVERTON 7ESE   N/A     38  37  97 SE2       29.92F
TULIA 2ENE     LGT RAIN  38  38  99 S7        29.91F WCI  33
TURKEY 2WSW      N/A     40  40  98 SE7       29.92F
UMBARGER 3NNE    N/A     38  37  94 S12       29.89F WCI  31
$$

TXZ033>036-039>041-045>048-312100
TEXAS TECH WEST TEXAS MESONET/SOUTH PLAINS

CITY           SKY/WX    TMP DP  RH WIND       PRES   REMARKS
AIKEN 3WSW       N/A     41  40  99 S5        29.91F
ANDREWS 2NE      N/A     47  46  95 S9        29.89F
BROWNFIELD 2S    N/A     41  40  98 S6        29.91F
DENVR CTY 7WNW   N/A     42  42  98 S7        29.89F
GAIL 2ESE        N/A     46  45  95 SE5       29.91F
LAMESA 2SE       N/A     46  46  99 S7        29.91F
LEVELLAND 4S     N/A     41  40  94 S7        29.90F
LUBBOCK 3WNW     N/A     42  42  98 S6        29.91F
MORTON 1ENE      N/A     40  40  99 S5        29.89F
ODONNELL 1N      N/A     43  42  97 SE6       29.90F
PLAINS 3N        N/A     42  42  98 S6        29.90F
RALLS 1SE        N/A     40  40  99 SE5       29.92F
REESE CENTER     N/A     41  40  97 S8        29.90F
SEAGRAVES 1SW    N/A     43  42  98 S6        29.90F
SEMINOLE 2NNE    N/A     43  43  97 SE3       29.90F
SLATON 2NE       N/A     40  40  99 SE5       29.91F
SNYDER 3E        N/A     46  46  99 S9        29.92F
SUNDOWN 8SW      N/A     42  42  99 S8        29.90F
TAHOKA 3NNE      N/A     42  42  99 SE5       29.90F
WOLFFORTH 6SSW   N/A     42  41  99 SE6       29.90F
$$

TXZ031-032-036>038-042>044-312100-
TEXAS TECH WEST TEXAS MESONET/ROLLING PLAINS

CITY           SKY/WX    TMP DP  RH WIND       PRES   REMARKS
ASPERMONT 3NE    N/A     46  45  97 SE8       29.94F
FLUVANNA 3WNW    N/A     45  44  95 SE8       29.91F
GRAHAM 5SSW    LGT RAIN  42  41  97 E2        29.91F
GUTHRIE 10WSW    N/A     43  42  97 SE3       29.93F
HASKELL 1NW    LGT RAIN  46  45  97 SE8       29.94F
JAYTON 1SSE      N/A     45  44  97 SE6       29.93F
KNOX CITY 3NW    N/A     46  43  88 SE6       29.96F
LK A HENRY 1NW   N/A     44  43  97 E2        29.91F
NORTHFIELD 1S    N/A     42  41  98 SE5       29.94F
ODELL 4ENE       N/A     42  41  97 SE10      29.98F
PADUCAH 10SW     N/A     42  41  97 SE5       29.94F
POST 1NE         N/A     42  41  97 NE1       29.92F
RRING SPRGS 3N   N/A     40  40  99 SE3       29.93F
SEYMOUR 3NW      N/A     44  41  91 SE8       29.97F
SPUR 1W          N/A     42  41  96 SE3       29.93F
WEINERT 2NNE     N/A     46  44  94 SE13      29.95F
WHITE RVR 6NE    N/A     41  40  97 E2        29.92F
$$

TXZ052-054-060>062-072-078-127-140-154-169-312100-
TEXAS TECH WEST TEXAS MESONET/PERMIAN BASIN/
CONCHO VALLEY/BIG COUNTRY/EDWARDS PLATEAU

CITY           SKY/WX    TMP DP  RH WIND       PRES   REMARKS
COYANOSA 2N      N/A     57  51  80 N6        29.88F
JUNCTION 1SSW    N/A     57  52  82 S7        29.95F
MERTZON 3NNE     N/A     55  53  92 S18       29.91F
SAN ANGELO 7NW   N/A     49  48  95 E8        29.93F
STRLNG CT 4WSW   N/A     50  49  97 SE10      29.92F
ST LAWRNCE 5SW   N/A     49  49  99 S17       29.92F
SWEETWATR 11SW   N/A     46  46  99 S14       29.91F
WALL 1E          N/A     54  51  90 SE8       29.94F
$$

TXZ055-058-074-075-080-082-312100-
TEXAS TECH WEST TEXAS MESONET/FAR WEST/SOUTHWEST MOUNTAINS/TRANS PECOS

CITY           SKY/WX    TMP DP  RH WIND       PRES   REMARKS
PRSMN GAP BBNP   N/A     54  50  87 N13       29.89F
GUADLPE MTN NP   N/A     49  44  82 S9        29.89F
$$



USA.gov is the U.S. government's official web portal to all federal, state and local government web resources and services.